CW5039 Weather Reports


time (UTC)temp
C
wind
direction
speed
KPH
gust
KPH
rain 1hr
cm
rain 24hr
cm
rain mn
cm
humidity
%
barometer
mb
20260506034405 20 106 3.2 8.0 0.00 0.00 0.00 79 1026.7
20260506033906 20 96 4.8 8.0 0.00 0.00 0.00 78 1026.8
20260506031905 20 86 1.6 4.8 0.00 0.00 0.00 80 1026.9
20260506031406 20 86 1.6 4.8 0.00 0.00 0.00 80 1026.9
20260506030905 20 87 3.2 8.0 0.00 0.00 0.00 80 1027.0
20260506024904 20 83 3.2 4.8 0.00 0.00 0.00 79 1027.1
20260506023905 20 65 4.8 9.7 0.00 0.00 0.00 78 1027.1
20260506022905 20 65 4.8 9.7 0.00 0.00 0.00 77 1027.1
20260506022405 21 27 0.0 4.8 0.00 0.00 0.00 76 1027.1
20260506020906 21 36 4.8 4.8 0.00 0.00 0.00 77 1027.1
20260506015905 20 38 1.6 3.2 0.00 0.00 0.00 80 1027.0
20260506015405 20 38 3.2 4.8 0.00 0.00 0.00 81 1027.1
20260506014905 20 59 4.8 8.0 0.00 0.00 0.00 81 1027.1
20260506014405 20 68 6.4 9.7 0.00 0.00 0.00 81 1027.2
20260506013405 20 72 9.7 12.9 0.00 0.00 0.00 80 1027.3
20260506012404 20 55 8.0 14.5 0.00 0.00 0.00 79 1027.4
20260506011405 20 24 4.8 8.0 0.00 0.00 0.00 79 1027.4
20260506010905 20 8 3.2 4.8 0.00 0.00 0.00 80 1027.5
20260506004904 20 30 8.0 14.5 0.00 0.00 0.00 81 1027.7
20260506003404 20 48 9.7 12.9 0.00 0.00 0.00 81 1027.8
20260506002404 20 42 11.3 16.1 0.00 0.00 0.00 81 1028.0
20260506000905 20 52 8.0 11.3 0.00 0.00 0.00 82 1028.1
20260505235905 20 41 8.0 11.3 0.00 0.00 0.00 81 1028.2
20260505235406 19 62 9.7 16.1 0.00 0.00 0.00 82 1028.4
20260505233906 20 71 8.0 11.3 0.00 0.00 0.00 81 1028.5
20260505233405 20 68 9.7 12.9 0.00 0.00 0.00 82 1028.5
20260505232905 20 65 6.4 9.7 0.00 0.00 0.00 81 1028.6
20260505232406 20 49 8.0 11.3 0.00 0.00 0.00 83 1028.7
20260505230905 19 67 4.8 11.3 0.00 0.00 0.00 85 1028.9
20260505225906 18 91 3.2 8.0 0.00 0.00 0.00 87 1029.0
20260505225405 18 94 6.4 11.3 0.00 0.00 0.00 88 1029.0
20260505222904 17 71 4.8 8.0 0.00 0.00 0.00 90 1029.3
20260505221905 17 70 9.7 11.3 0.00 0.00 0.00 90 1029.4
20260505220905 17 70 8.0 11.3 0.00 0.00 0.00 90 1029.4
20260505215905 17 84 3.2 8.0 0.00 0.00 0.00 91 1029.4
20260505215405 17 100 3.2 4.8 0.00 0.00 0.00 92 1029.4
20260505214905 17 209 1.6 4.8 0.00 0.00 0.00 93 1029.4
20260505214405 16 228 1.6 3.2 0.00 0.00 0.00 93 1029.4
20260505213405 16 229 0.0 1.6 0.00 0.00 0.00 94 1029.5
20260505212905 16 229 0.0 0.0 0.00 0.00 0.00 94 1029.7
20260505212404 15 229 0.0 0.0 0.00 0.00 0.00 94 1029.7
20260505210905 15 229 0.0 0.0 0.00 0.00 0.00 94 1029.7
20260505205905 14 229 0.0 0.0 0.00 0.00 0.00 94 1029.8
20260505205404 14 228 0.0 0.0 0.00 0.00 0.00 94 1029.8
20260505204905 14 228 0.0 0.0 0.00 0.00 0.00 94 1029.8
20260505204405 14 228 0.0 0.0 0.00 0.00 0.00 94 1029.8
20260505203405 13 228 0.0 0.0 0.00 0.00 0.00 95 1029.7
20260505202905 13 226 0.0 0.0 0.00 0.00 0.00 94 1029.7
20260505202405 13 226 0.0 0.0 0.00 0.00 0.00 95 1029.6
20260505200904 13 224 0.0 0.0 0.00 0.00 0.00 95 1029.3
20260505200405 13 223 0.0 0.0 0.00 0.00 0.00 95 1029.2
20260505195405 13 223 0.0 1.6 0.00 0.00 0.00 94 1029.2
20260505194904 13 225 0.0 1.6 0.00 0.00 0.00 94 1029.2
20260505194406 12 225 0.0 1.6 0.00 0.00 0.00 94 1029.1
20260505193906 12 225 0.0 1.6 0.00 0.00 0.00 94 1029.1
20260505190906 12 226 0.0 0.0 0.00 0.00 0.00 94 1029.1
20260505185906 12 226 0.0 0.0 0.00 0.00 0.00 94 1028.9
20260505185406 12 226 0.0 0.0 0.00 0.00 0.00 94 1028.9
20260505184906 12 226 0.0 0.0 0.00 0.00 0.00 94 1028.9
20260505184405 12 226 0.0 0.0 0.00 0.00 0.00 94 1028.8
20260505183406 12 226 0.0 0.0 0.00 0.00 0.00 94 1028.8
20260505182406 12 226 0.0 0.0 0.00 0.00 0.00 94 1028.8
20260505180906 12 226 0.0 0.0 0.00 0.00 0.00 94 1028.8
20260505174906 13 226 0.0 0.0 0.00 0.00 0.00 94 1028.8
20260505173406 13 226 0.0 1.6 0.00 0.00 0.00 94 1028.8
20260505172906 13 226 1.6 4.8 0.00 0.00 0.00 94 1028.8
20260505172406 13 226 3.2 4.8 0.00 0.00 0.00 94 1028.8
20260505171906 13 226 3.2 4.8 0.00 0.00 0.00 94 1028.9
20260505170406 13 226 3.2 4.8 0.00 0.00 0.00 94 1028.9
20260505165906 13 226 1.6 4.8 0.00 0.00 0.00 94 1028.9
20260505161905 12 226 0.0 0.0 0.00 0.00 0.00 94 1028.9
20260505161406 12 226 0.0 0.0 0.00 0.00 0.00 94 1028.9
20260505160906 12 226 0.0 0.0 0.00 0.00 0.00 94 1028.9
20260505160406 12 226 0.0 0.0 0.00 0.00 0.00 94 1029.0
20260505152905 12 226 0.0 1.6 0.00 0.00 0.00 93 1029.1
20260505151406 12 226 1.6 3.2 0.00 0.00 0.00 93 1029.2
20260505150906 12 226 0.0 1.6 0.00 0.00 0.00 92 1029.2
20260505150406 12 226 1.6 3.2 0.00 0.00 0.00 93 1029.3
20260505124905 14 208 1.6 4.8 0.00 0.00 0.00 90 1030.5
20260505123905 14 208 3.2 4.8 0.00 0.00 0.00 90 1030.5
20260505123405 14 208 3.2 4.8 0.00 0.00 0.00 90 1030.5
20260505122905 14 208 1.6 4.8 0.00 0.00 0.00 90 1030.5
20260505122404 14 208 4.8 4.8 0.00 0.00 0.00 90 1030.4
20260505120905 14 213 1.6 3.2 0.00 0.00 0.00 90 1030.5
20260505115905 14 213 1.6 3.2 0.00 0.00 0.00 90 1030.5
20260505114406 14 196 3.2 4.8 0.00 0.00 0.00 90 1030.5
20260505112905 14 143 0.0 0.0 0.00 0.00 0.00 89 1030.6
20260505112405 14 143 0.0 0.0 0.00 0.00 0.00 89 1030.6
20260505111906 14 143 0.0 0.0 0.00 0.00 0.00 89 1030.6
20260505111405 15 143 0.0 0.0 0.00 0.00 0.00 88 1030.6
20260505110906 15 143 0.0 0.0 0.00 0.00 0.00 88 1030.6
20260505110405 15 143 0.0 0.0 0.00 0.00 0.00 88 1030.6
20260505101905 15 146 3.2 4.8 0.00 0.00 0.00 86 1030.9
20260505101405 15 146 4.8 4.8 0.00 0.00 0.00 86 1030.9
20260505095905 15 148 4.8 8.0 0.00 0.00 0.00 87 1030.9
20260505094906 15 148 4.8 8.0 0.00 0.00 0.00 88 1030.9
20260505093405 15 68 1.6 4.8 0.00 0.00 0.00 87 1030.8
20260505092905 15 68 1.6 4.8 0.00 0.00 0.00 87 1030.8
20260505084406 15 68 3.2 4.8 0.00 0.00 0.00 86 1030.7
20260505083906 15 68 3.2 8.0 0.00 0.00 0.00 85 1030.7
20260505082405 15 67 3.2 4.8 0.00 0.00 0.00 84 1030.7
20260505081905 15 66 1.6 4.8 0.00 0.00 0.00 84 1030.7
20260505081405 15 66 3.2 4.8 0.00 0.00 0.00 84 1030.8
20260505075905 16 65 4.8 9.7 0.00 0.00 0.00 83 1030.8
20260505075406 15 52 4.8 8.0 0.00 0.00 0.00 84 1030.8
20260505074906 15 46 3.2 4.8 0.00 0.00 0.00 84 1030.8
20260505072405 15 38 3.2 4.8 0.00 0.00 0.00 84 1030.8
20260505070906 15 30 1.6 4.8 0.00 0.00 0.00 83 1030.6
20260505062905 16 20 8.0 9.7 0.00 0.00 0.00 83 1030.6
20260505061906 16 27 8.0 11.3 0.00 0.00 0.00 82 1030.5
20260505061405 16 27 8.0 9.7 0.00 0.00 0.00 83 1030.5
20260505060406 15 19 4.8 9.7 0.00 0.00 0.00 84 1030.5
20260505055404 16 33 3.2 4.8 0.00 0.00 0.00 83 1030.4
20260505054905 16 34 3.2 4.8 0.00 0.00 0.00 83 1030.3
20260505053906 16 38 4.8 4.8 0.00 0.00 0.00 82 1030.3
20260505053406 16 40 4.8 4.8 0.00 0.00 0.00 82 1030.2
20260505051905 17 25 4.8 8.0 0.00 0.00 0.00 81 1030.2
20260505051406 17 23 4.8 8.0 0.00 0.00 0.00 80 1030.3
20260505050905 17 45 4.8 8.0 0.00 0.00 0.00 79 1030.3
20260505041406 18 60 8.0 11.3 0.00 0.00 0.00 75 1030.4
20260505040905 18 54 8.0 11.3 0.00 0.00 0.00 75 1030.5
20260505035906 18 55 6.4 11.3 0.00 0.00 0.00 75 1030.5